{"data":{"norad_id":68022,"epoch":"2026-05-24T20:32:59.231904Z","epoch_age_seconds":83365,"freshness":"FRESH","line1":"1 68022U 26040H   26144.85624111  .00022839  00000+0  70745-3 0  9994","line2":"2 68022  97.2839  93.8406 0001769  97.2078 262.9366 15.33452080 13137","mean_motion":15.3345208,"eccentricity":0.0001769,"inclination_deg":97.2839,"raan_deg":93.8406,"arg_perigee_deg":97.2078,"mean_anomaly_deg":262.9366,"bstar":0.00070745,"rev_number":1313,"period_min":93.905771088719,"perigee_km":464.31146616392,"apogee_km":466.73275275685,"semimajor_km":6843.6591094604,"source":"CELESTRAK","updated_at":"2026-05-25T13:38:21.805658Z"}}